User: anonymous   Login
Location: Unspecified
(0.0000°N, 0.0000°E)
Time: 07:50:06
(UTC+00:00)
Language:

CUBERRT - Orbit

View from above orbital plane
View from above orbital plane
View from above satellite
View from above satellite

Ground track
Ground track

The orbit data is extracted from the following two-line orbital elements,

1 43546U 98067NU  20223.77456150  .00014310  00000-0  96744-4 0  9999
2 43546  51.6341   2.1921 0002651 299.9086  60.1650 15.75349951118801
Epoch (UTC): 10 August 2020 18:35:22
Eccentricity: 0.0002651
inclination: 51.6341°
perigee height: 342 km
apogee height: 345 km
right ascension of ascending node: 2.1921°
argument of perigee: 299.9086°
revolutions per day: 15.75349951
mean anomaly at epoch: 60.1650°
orbit number at epoch: 11880

The dashed part of the orbit path shows where the satellite is in the earth's shadow,  

DLR